Weather Roundup
Issued by NWS Chicago, IL

Home | Current Version | Previous Version | Graphics & Text | Print | Product List | Glossary On
Versions: 1 2 3 4 5 6 7 8 9 10 11 12 13 14 15 16 17 18 19 20 21 22 23 24 25 26 27 28 29 30 31 32 33 34 35 36 37 38 39 40 41 42 43 44 45 46 47 48 49 50
000
NZUS59 KLOT 031110
HRRLOT

CHICAGO AREA WEATHER ROUNDUP
NATIONAL WEATHER SERVICE CHICAGO/ROMEOVILLE IL
500 AM CST TUE MAR 03 2015

NOTE: "FAIR" INDICATES FEW OR NO CLOUDS BELOW 12,000 FEET WITH NO
SIGNIFICANT WEATHER AND/OR OBSTRUCTIONS TO VISIBILITY.

* THESE STATIONS ARE NOT UNDER NWS QUALITY CONTROL. THEY ALSO MAY NOT
  REPORT WEATHER SUCH AS PRECIPITATION OR FOG.

ILZ005-006-012>014-019>023-031200-
NORTHEAST ILLINOIS

CITY           SKY/WX    TMP DP  RH WIND       PRES   REMARKS
OHARE          LGT SNOW  24  21  88 SE10      30.03F VSB 3/4 WCI  14
MIDWAY         LGT SNOW  27  20  75 SE9       30.05F VSB 3/4 WCI  18
AURORA         LGT SNOW  25  20  81 SE15      30.01F WCI  13
LANSING*       LGT SNOW  26  21  80 S9        30.10R WCI  17
JOLIET*        LGT SNOW  26  23  89 SE3       30.06F
WAUKEGAN       LGT SNOW  25  21  85 S16       30.04S VSB 3/4 WCI  12
DUPAGE AIRPORT LGT SNOW  24  21  88 SE12      30.00F FOG     WCI  13
WHEELING       SNOW      24  22  91 SE9       30.05F VSB 1/2 WCI  14
KANKAKEE*      MIX PCPN  29  26  88 SE12G17   30.04F WCI  19
MORRIS*        MIX PCPN  28  25  91 S8        30.04F WCI  19
LEWIS AIRPORT* LGT SNOW  25  22  89 SE10      30.04F WCI  15
NORTHERLY IS     N/A     27  19  72 S8          N/A  WCI  19
$$

WIZ051-052-058>065-066-070>072-031200-
SOUTHEAST WISCONSIN

CITY           SKY/WX    TMP DP  RH WIND       PRES   REMARKS
MILWAUKEE      LGT SNOW  27  19  72 SE14      30.01F WCI  16
KENOSHA*       LGT SNOW  27  21  78 SE14      30.01F WCI  16
RACINE*        CLOUDY    27  20  75 S12       30.05S WCI  17
BURLINGTON     LGT SNOW  23  17  77 SE12      29.98F WCI  12
WEST BEND      CLOUDY    27  16  63 SE7       29.98F WCI  19
$$

INZ001>003-010>013-019-020-031200-
NORTHWEST INDIANA

CITY           SKY/WX    TMP DP  RH WIND       PRES   REMARKS
GARY*          LGT SNOW  28  18  64 SE8       30.09F WCI  20
MICHIGAN CITY* NOT AVBL
RENSSELAER*    NOT AVBL
VALPARAISO     FRZ RAIN  26  19  74 S7        30.09R WCI  18
$$

LMZ740>746-031200-
SOUTHERN LAKE MICHIGAN

STATION/POSITION TIME  SKY/WX   TEMP WIND        PRES    VSBY
                                AIR  DIR/SP/G
                 (UTC)          (F)  (DEG/KT/KT) (MB)    (MI)
HARRISON CRIB    1100            27  170/ 17/ 21   N/A
BURNHAM HARBOR   1100            26  140/  8/ 11   N/A
CALUMET HARBOR   1100                160/  7/ 11   N/A
BURNS HARBOR     NOT AVBL
MICHIGAN CITY    1100            26  130/ 10/ 12   N/A
$$

ABBREVIATIONS USED IN REMARKS
   TC - TEMPERATURE IN CELSIUS
  WCI - WIND CHILL INDEX
   HX - HEAT INDEX
  VSB - VISIBILITY
$$



USA.gov is the U.S. government's official web portal to all federal, state and local government web resources and services.